Terminal Aerodrome Forecast
Issued by NWS Chicago, IL

Home | Current Version | Previous Version | Graphics & Text | Print | Product List | Glossary On
Versions: 1 2 3 4 5 6 7 8 9 10 11 12 13 14 15 16 17 18 19 20 21 22 23 24
000
FTUS43 KLOT 250906 AAA
TAFRFD
TAF AMD
KRFD 250906Z 2509/2606 35009KT 6SM BR SCT008 OVC014
      TEMPO 2509/2512 OVC008
     FM251600 34012KT P6SM BKN020
     FM252000 34010KT P6SM SCT035
     FM260100 VRB03KT P6SM FEW040=

USA.gov is the U.S. government's official web portal to all federal, state and local government web resources and services.